Terminal Aerodrome Forecast
Issued by NWS Pittsburgh, PA

Current Version | Previous Version | Graphics & Text | Print | Product List | Glossary On
Versions: 1 2 3 4 5 6 7 8 9 10 11 12 13 14 15 16 17 18 19 20 21 22 23 24 25 26 27 28 29
922
FTUS41 KPBZ 262054 AAA
TAFPIT
TAF AMD
KPIT 262054Z 2621/2724 17005KT P6SM SKC
     FM271500 16008KT P6SM SCT100
     FM271900 18010G20KT P6SM VCTS BKN035CB=

USA.gov is the U.S. government's official web portal to all federal, state and local government web resources and services.